Location: Sternwarte_Laufen
(47.9344°N, 12.9346°E)
Time: 16:12:41
(UTC+02:00)

ISS - Pass Details

Date: 16 May 2026
Orbit: 414 x 424 km, 51.6° (Epoch: 21 May)

Event Time Altitude Azimuth Distance (km) Brightness Sun altitude
Rises 22:34:17 0° 288° (WNW) 2,353 1.0 -14.9°
Reaches altitude 10° 22:36:25 10° 294° (WNW) 1,490 0.0 -15.1°
Maximum altitude 22:39:40 48° 10° (N) 556 -2.9 -15.4°
Enters shadow 22:42:10 15° 82° (E) 1,202 -1.7 -15.6°
